Satellite: NO-44
Catalog number: 26931
Epoch time:      11223.51714599
Element set:     822
Inclination:      067.0498 deg
RA of node:       200.9543 deg
Eccentricity:    0.0005862
Arg of perigee:   256.7912 deg
Mean anomaly:     103.2541 deg
Mean motion:   14.29673134 rev/day
Decay rate:       1.84e-06 rev/day^2
Epoch rev:           51483
Checksum:              301

Satellite: SO-50
Catalog number: 27607
Epoch time:      11222.35657126
Element set:    0538
Inclination:      064.5578 deg
RA of node:       163.0616 deg
Eccentricity:    0.0077398
Arg of perigee:   309.9042 deg
Mean anomaly:     049.5271 deg
Mean motion:   14.71788538 rev/day
Decay rate:       3.63e-06 rev/day^2
Epoch rev:           46406
Checksum:              327

Satellite: CO-55
Catalog number: 27844
Epoch time:      11223.59852019
Element set:     173
Inclination:      098.7072 deg
RA of node:       231.4967 deg
Eccentricity:    0.0010650
Arg of perigee:   041.1515 deg
Mean anomaly:     319.0463 deg
Mean motion:   14.20831764 rev/day
Decay rate:        8.8e-07 rev/day^2
Epoch rev:           42078
Checksum:              298

Satellite: CO-57
Catalog number: 27848
Epoch time:      11222.56452113
Element set:    0122
Inclination:      098.7146 deg
RA of node:       229.6852 deg
Eccentricity:    0.0010637
Arg of perigee:   050.0626 deg
Mean anomaly:     310.1513 deg
Mean motion:   14.20608463 rev/day
Decay rate:        4.7e-07 rev/day^2
Epoch rev:           42058
Checksum:              275

Satellite: AO-51
Catalog number: 28375
Epoch time:      11222.97464634
Element set:    0044
Inclination:      098.1027 deg
RA of node:       198.5524 deg
Eccentricity:    0.0083046
Arg of perigee:   264.6000 deg
Mean anomaly:     094.5705 deg
Mean motion:   14.40772148 rev/day
Decay rate:        4.7e-07 rev/day^2
Epoch rev:           37395
Checksum:              307

Satellite: CP3
Catalog number: 31129
Epoch time:      11222.77675267
Element set:     939
Inclination:      097.8996 deg
RA of node:       243.8344 deg
Eccentricity:    0.0102129
Arg of perigee:   012.5975 deg
Mean anomaly:     347.7660 deg
Mean motion:   14.52535840 rev/day
Decay rate:       6.06e-06 rev/day^2
Epoch rev:           22876
Checksum:              331

Satellite: CO-65
Catalog number: 32785
Epoch time:      11223.71097951
Element set:      66
Inclination:      097.8459 deg
RA of node:       286.5321 deg
Eccentricity:    0.0014839
Arg of perigee:   000.0896 deg
Mean anomaly:     000.0288 deg
Mean motion:   14.82073365 rev/day
Decay rate:       2.04e-06 rev/day^2
Epoch rev:           17776
Checksum:              314

Satellite: PRISM
Catalog number: 33493
Epoch time:      11223.80261790
Element set:     855
Inclination:      098.1305 deg
RA of node:       353.2478 deg
Eccentricity:    0.0018851
Arg of perigee:   218.6512 deg
Mean anomaly:     141.3367 deg
Mean motion:   14.81832041 rev/day
Decay rate:      1.174e-05 rev/day^2
Epoch rev:           13775
Checksum:              289

Satellite: SOHLA-1
Catalog number: 33496
Epoch time:      11222.85862849
Element set:    0511
Inclination:      098.0844 deg
RA of node:       332.1487 deg
Eccentricity:    0.0006061
Arg of perigee:   317.8060 deg
Mean anomaly:     042.2674 deg
Mean motion:   14.69642390 rev/day
Decay rate:        7.9e-07 rev/day^2
Epoch rev:           13651
Checksum:              302

Satellite: TISAT-1
Catalog number: 36799
Epoch time:      11223.82307339
Element set:     128
Inclination:      098.0972 deg
RA of node:       292.6169 deg
Eccentricity:    0.0016703
Arg of perigee:   096.7544 deg
Mean anomaly:     263.5557 deg
Mean motion:   14.80654652 rev/day
Decay rate:       7.99e-06 rev/day^2
Epoch rev:            5854
Checksum:              343

Satellite: STUDSAT
Catalog number: 36801
Epoch time:      11222.81213257
Element set:    0253
Inclination:      098.1040 deg
RA of node:       291.4995 deg
Eccentricity:    0.0014796
Arg of perigee:   088.8056 deg
Mean anomaly:     271.4849 deg
Mean motion:   14.80858891 rev/day
Decay rate:      2.183e-05 rev/day^2
Epoch rev:           05838
Checksum:              321

Satellite: OOREOS
Catalog number: 37224
Epoch time:      11153.29456974
Element set:    0179
Inclination:      071.9726 deg
RA of node:       071.8135 deg
Eccentricity:    0.0020315
Arg of perigee:   307.7637 deg
Mean anomaly:     052.1684 deg
Mean motion:   14.77036357 rev/day
Decay rate:       4.92e-06 rev/day^2
Epoch rev:           02867
Checksum:              309

Satellite: FO-69
Catalog number: 37227
Epoch time:      11223.47432000
Element set:    0104
Inclination:      071.9695 deg
RA of node:       277.3607 deg
Eccentricity:    0.0017364
Arg of perigee:   184.0278 deg
Mean anomaly:     176.0747 deg
Mean motion:   14.76622924 rev/day
Decay rate:       1.62e-06 rev/day^2
Epoch rev:           01748
Checksum:              304

Satellite: NANOSALD
Catalog number: 37361
Epoch time:      11216.44653819
Element set:    0310
Inclination:      071.9576 deg
RA of node:       282.2917 deg
Eccentricity:    0.0012142
Arg of perigee:   298.4495 deg
Mean anomaly:     061.4942 deg
Mean motion:   15.16316213 rev/day
Decay rate:    1.35228e-03 rev/day^2
Epoch rev:           02939
Checksum:              297

